GW1885 Weather Reports


time (UTC)temp
C
wind
direction
speed
KPH
gust
KPH
rain 1hr
cm
rain 24hr
cm
rain mn
cm
humidity
%
barometer
mb
20260503021504 12 163 6.4 11.3 0.00 0.00 0.00 59 1013.7
20260503021005 12 162 6.4 11.3 0.00 0.00 0.00 59 1013.7
20260503020504 12 161 6.4 11.3 0.00 0.00 0.00 59 1013.7
20260503020005 12 163 6.4 11.3 0.00 0.00 0.00 59 1013.7
20260503015504 12 165 6.4 11.3 0.00 0.00 0.00 59 1013.7
20260503015025 12 167 6.4 11.3 0.00 0.00 0.00 59 1013.9
20260503014504 12 173 6.4 11.3 0.00 0.00 0.00 58 1013.7
20260503014005 12 178 6.4 11.3 0.00 0.00 0.00 58 1013.8
20260503013504 12 179 6.4 11.3 0.00 0.00 0.00 59 1013.8
20260503013004 12 176 6.4 11.3 0.00 0.00 0.00 59 1013.8
20260503012526 12 171 6.4 11.3 0.00 0.00 0.00 59 1013.8
20260503012005 12 174 6.4 11.3 0.00 0.00 0.00 60 1014.0
20260503011504 12 177 6.4 9.7 0.00 0.00 0.00 61 1014.0
20260503011005 12 172 6.4 9.7 0.00 0.00 0.00 61 1013.9
20260503010504 12 167 6.4 9.7 0.00 0.00 0.00 60 1014.0
20260503010004 12 165 6.4 9.7 0.00 0.00 0.00 61 1013.9
20260503005504 12 164 6.4 9.7 0.00 0.00 0.00 62 1013.9
20260503005025 12 164 6.4 9.7 0.00 0.00 0.00 63 1014.1
20260503004504 12 164 6.4 11.3 0.00 0.00 0.00 62 1014.0
20260503004004 12 165 6.4 11.3 0.00 0.00 0.00 62 1014.2
20260503003525 12 166 6.4 11.3 0.00 0.00 0.00 62 1014.2
20260503003004 12 165 6.4 11.3 0.00 0.00 0.00 62 1014.1
20260503002525 12 166 6.4 11.3 0.00 0.00 0.00 62 1014.1
20260503002004 12 166 6.4 9.7 0.00 0.00 0.00 62 1014.2
20260503001504 12 166 6.4 9.7 0.00 0.00 0.00 62 1014.2
20260503001026 11 165 6.4 9.7 0.00 0.00 0.00 62 1014.5
20260503000505 11 164 6.4 9.7 0.00 0.00 0.00 63 1014.4
20260503000005 11 166 6.4 11.3 0.00 0.00 0.00 62 1014.4
20260502235504 12 171 6.4 11.3 0.00 0.00 0.00 59 1014.4
20260502235025 12 175 6.4 9.7 0.00 0.00 0.00 60 1014.4
20260502234504 12 176 6.4 11.3 0.00 0.00 0.00 60 1014.4
20260502234004 12 178 6.4 11.3 0.00 0.00 0.00 60 1014.3
20260502233504 12 180 6.4 9.7 0.00 0.00 0.00 61 1014.6
20260502233005 12 179 6.4 9.7 0.00 0.00 0.00 60 1014.5
20260502232504 12 178 6.4 9.7 0.00 0.00 0.00 60 1014.6
20260502232005 12 177 6.4 6.4 0.00 0.00 0.00 60 1014.7
20260502231504 12 176 6.4 9.7 0.00 0.00 0.00 60 1014.5
20260502231004 12 178 6.4 9.7 0.00 0.00 0.00 58 1014.8
20260502230526 12 176 6.4 9.7 0.00 0.00 0.00 58 1014.7
20260502230005 12 171 6.4 9.7 0.00 0.00 0.00 58 1014.7
20260502225504 12 169 4.8 9.7 0.00 0.00 0.00 58 1014.8
20260502225025 12 169 6.4 6.4 0.00 0.00 0.00 59 1015.1
20260502224526 12 173 6.4 9.7 0.00 0.00 0.00 58 1014.9
20260502224004 12 176 6.4 9.7 0.00 0.00 0.00 58 1014.9
20260502223525 12 176 6.4 9.7 0.00 0.00 0.00 57 1015.1
20260502223004 12 174 6.4 9.7 0.00 0.00 0.00 57 1014.9
20260502222504 12 175 6.4 9.7 0.00 0.00 0.00 57 1015.1
20260502222025 12 178 6.4 6.4 0.00 0.00 0.00 58 1015.1
20260502221505 12 178 6.4 6.4 0.00 0.00 0.00 59 1014.9
20260502221004 12 179 4.8 6.4 0.00 0.00 0.00 58 1015.3
20260502220505 12 180 4.8 6.4 0.00 0.00 0.00 60 1015.2
20260502220026 12 180 4.8 6.4 0.00 0.00 0.00 61 1015.4
20260502215504 11 181 4.8 6.4 0.00 0.00 0.00 63 1015.4
20260502215005 10 180 4.8 6.4 0.00 0.00 0.00 68 1015.3
20260502214504 10 177 3.2 4.8 0.00 0.00 0.00 70 1015.6
20260502214025 10 176 3.2 4.8 0.00 0.00 0.00 70 1015.4
20260502213504 10 170 3.2 4.8 0.00 0.00 0.00 71 1015.5
20260502213005 10 150 3.2 4.8 0.00 0.00 0.00 72 1015.5
20260502212505 10 99 1.6 4.8 0.00 0.00 0.00 72 1015.7
20260502212004 10 60 1.6 3.2 0.00 0.00 0.00 71 1015.6
20260502211504 10 59 1.6 3.2 0.00 0.00 0.00 70 1015.7
20260502211005 10 58 0.0 3.2 0.00 0.00 0.00 71 1015.6
20260502210525 10 58 0.0 3.2 0.00 0.00 0.00 70 1015.6
20260502210025 10 58 1.6 3.2 0.00 0.00 0.00 69 1015.7
20260502205504 10 52 1.6 3.2 0.00 0.00 0.00 69 1015.7
20260502205004 10 42 0.0 3.2 0.00 0.00 0.00 69 1015.6
20260502204505 11 31 0.0 1.6 0.00 0.00 0.00 69 1015.8
20260502204004 11 31 0.0 3.2 0.00 0.00 0.00 68 1015.8
20260502203504 11 31 0.0 3.2 0.00 0.00 0.00 67 1015.7
20260502203004 11 31 1.6 1.6 0.00 0.00 0.00 67 1015.7
20260502202503 11 31 0.0 1.6 0.00 0.00 0.00 67 1015.7
20260502202004 11 31 0.0 1.6 0.00 0.00 0.00 67 1015.9
20260502201524 11 0 0.0 0.0 0.00 0.00 0.00 67 1015.8
20260502201025 11 0 0.0 0.0 0.00 0.00 0.00 65 1015.9
20260502200525 12 0 0.0 0.0 0.00 0.00 0.00 65 1015.8
20260502200005 12 0 0.0 0.0 0.00 0.00 0.00 62 1015.9
20260502195503 12 0 0.0 0.0 0.00 0.00 0.00 62 1015.8
20260502195025 12 0 0.0 0.0 0.00 0.00 0.00 61 1015.9
20260502194505 13 0 0.0 0.0 0.00 0.00 0.00 62 1016.0
20260502194005 13 0 0.0 0.0 0.00 0.00 0.00 59 1015.8
20260502193504 13 0 0.0 0.0 0.00 0.00 0.00 60 1015.9
20260502193004 14 31 0.0 1.6 0.00 0.00 0.00 57 1015.9
20260502192504 14 31 0.0 1.6 0.00 0.00 0.00 56 1016.0
20260502192025 14 0 0.0 0.0 0.00 0.00 0.00 56 1015.9
20260502191525 15 0 0.0 0.0 0.00 0.00 0.00 55 1016.1
20260502191004 15 32 0.0 1.6 0.00 0.00 0.00 55 1016.0
20260502190503 15 31 0.0 3.2 0.00 0.00 0.00 54 1016.0
20260502190026 15 31 1.6 3.2 0.00 0.00 0.00 53 1015.9
20260502185504 15 31 0.0 3.2 0.00 0.00 0.00 52 1015.9
20260502185004 16 20 0.0 1.6 0.00 0.00 0.00 51 1015.9
20260502184505 17 20 0.0 1.6 0.00 0.00 0.00 49 1016.0
20260502184004 17 0 0.0 0.0 0.00 0.00 0.00 46 1016.1
20260502183504 17 0 0.0 0.0 0.00 0.00 0.00 47 1016.0
20260502183004 17 0 0.0 0.0 0.00 0.00 0.00 46 1016.1
20260502182505 18 0 0.0 0.0 0.00 0.00 0.00 44 1016.0
20260502182004 18 0 0.0 0.0 0.00 0.00 0.00 43 1015.8
20260502181504 18 20 0.0 1.6 0.00 0.00 0.00 42 1016.1
20260502181005 19 20 1.6 1.6 0.00 0.00 0.00 42 1016.0
20260502180504 18 21 0.0 1.6 0.00 0.00 0.00 42 1016.0
20260502164004 21 28 1.6 3.2 0.00 0.00 0.00 37 1016.7
20260502163503 22 33 0.0 3.2 0.00 0.00 0.00 35 1016.7
20260502163003 22 33 0.0 3.2 0.00 0.00 0.00 35 1016.8
20260502162503 22 23 1.6 4.8 0.00 0.00 0.00 35 1016.6
20260502162004 22 16 1.6 4.8 0.00 0.00 0.00 34 1016.8
20260502161505 22 12 1.6 4.8 0.00 0.00 0.00 35 1016.8
20260502161026 22 4 1.6 4.8 0.00 0.00 0.00 34 1016.8
20260502160505 22 359 1.6 6.4 0.00 0.00 0.00 34 1017.0
20260502152005 23 340 1.6 6.4 0.00 0.00 0.00 32 1017.6
20260502151503 23 329 1.6 6.4 0.00 0.00 0.00 34 1017.5
20260502151005 23 322 1.6 9.7 0.00 0.00 0.00 33 1017.8
20260502150505 23 314 1.6 9.7 0.00 0.00 0.00 33 1017.5
20260502130505 26 172 4.8 12.9 0.00 0.00 0.00 23 1019.0
20260502123525 27 176 3.2 11.3 0.00 0.00 0.00 24 1019.4
20260502123004 26 174 3.2 11.3 0.00 0.00 0.00 24 1019.5
20260502122503 26 181 3.2 9.7 0.00 0.00 0.00 26 1019.6
20260502122004 26 174 3.2 11.3 0.00 0.00 0.00 25 1019.7
20260502121504 26 201 3.2 11.3 0.00 0.00 0.00 27 1019.8
20260502121024 25 261 3.2 11.3 0.00 0.00 0.00 27 1019.8
20260502120504 25 184 3.2 11.3 0.00 0.00 0.00 30 1019.9
20260502115503 26 198 3.2 11.3 0.00 0.00 0.00 27 1020.2
20260502115003 25 187 3.2 11.3 0.00 0.00 0.00 28 1020.2
20260502114504 24 2 3.2 11.3 0.00 0.00 0.00 27 1020.4
20260502114003 25 128 1.6 6.4 0.00 0.00 0.00 27 1020.4
20260502113525 25 159 1.6 9.7 0.00 0.00 0.00 26 1020.5
20260502113025 26 178 3.2 9.7 0.00 0.00 0.00 26 1020.6
20260502112503 25 187 3.2 9.7 0.00 0.00 0.00 28 1020.7
20260502112004 25 217 1.6 6.4 0.00 0.00 0.00 29 1020.6
20260502111504 25 188 3.2 9.7 0.00 0.00 0.00 28 1020.7
20260502111003 25 193 3.2 9.7 0.00 0.00 0.00 28 1020.8
20260502110504 25 212 3.2 6.4 0.00 0.00 0.00 29 1020.9
20260502110004 25 183 3.2 9.7 0.00 0.00 0.00 27 1021.0
20260502105504 25 171 3.2 9.7 0.00 0.00 0.00 27 1020.9
20260502105025 25 193 3.2 9.7 0.00 0.00 0.00 26 1021.1
20260502104503 24 255 3.2 9.7 0.00 0.00 0.00 29 1021.1
20260502104004 23 190 4.8 11.3 0.00 0.00 0.00 30 1021.1
20260502103525 23 167 4.8 11.3 0.00 0.00 0.00 30 1021.1
20260502103003 25 159 3.2 11.3 0.00 0.00 0.00 27 1021.3
20260502102503 24 155 6.4 16.1 0.00 0.00 0.00 29 1021.3
20260502102004 24 162 6.4 16.1 0.00 0.00 0.00 28 1021.4
20260502101504 24 177 4.8 11.3 0.00 0.00 0.00 29 1021.4
20260502101004 23 173 4.8 12.9 0.00 0.00 0.00 28 1021.5
20260502100503 24 178 4.8 12.9 0.00 0.00 0.00 28 1021.7
20260502091504 23 192 3.2 11.3 0.00 0.00 0.00 28 1022.2
20260502091004 23 198 3.2 11.3 0.00 0.00 0.00 27 1022.2
20260502090524 23 196 3.2 6.4 0.00 0.00 0.00 29 1022.2
20260502071505 17 158 3.2 9.7 0.00 0.00 0.00 46 1023.1
20260502071005 17 158 3.2 6.4 0.00 0.00 0.00 47 1023.1
20260502070505 16 155 4.8 11.3 0.00 0.00 0.00 49 1023.2
20260502070026 16 156 4.8 11.3 0.00 0.00 0.00 49 1023.2
20260502065504 16 163 4.8 9.7 0.00 0.00 0.00 51 1023.1
20260502065005 16 166 4.8 9.7 0.00 0.00 0.00 50 1023.0
20260502064505 15 167 3.2 6.4 0.00 0.00 0.00 53 1023.2
20260502064027 15 168 3.2 6.4 0.00 0.00 0.00 54 1023.2
20260502063505 15 166 3.2 6.4 0.00 0.00 0.00 54 1023.2
20260502063005 15 166 3.2 6.4 0.00 0.00 0.00 54 1023.3
20260502062525 14 170 3.2 6.4 0.00 0.00 0.00 54 1023.3
20260502062005 14 177 3.2 6.4 0.00 0.00 0.00 54 1023.3
20260502061005 13 171 4.8 9.7 0.00 0.00 0.00 56 1023.2
20260502060505 13 174 4.8 9.7 0.00 0.00 0.00 56 1023.2
20260502060005 12 175 4.8 9.7 0.00 0.00 0.00 57 1023.3
20260502055504 12 173 4.8 6.4 0.00 0.00 0.00 58 1023.3
20260502055006 12 173 4.8 9.7 0.00 0.00 0.00 58 1023.3
20260502054505 12 173 4.8 9.7 0.00 0.00 0.00 58 1023.1
20260502054004 12 174 4.8 9.7 0.00 0.00 0.00 59 1023.3
20260502053504 11 174 4.8 9.7 0.00 0.00 0.00 61 1023.4
20260502053005 11 173 4.8 9.7 0.00 0.00 0.00 61 1023.2
20260502052505 10 175 4.8 9.7 0.00 0.00 0.00 62 1023.3
20260502052005 10 180 6.4 9.7 0.00 0.00 0.00 63 1023.4
20260502051504 10 194 4.8 9.7 0.00 0.00 0.00 64 1023.4
20260502051025 9 208 4.8 9.7 0.00 0.00 0.00 66 1023.5
20260502050505 8 218 3.2 9.7 0.00 0.00 0.00 69 1023.2
20260502050005 8 226 4.8 9.7 0.00 0.00 0.00 69 1023.4
20260502045504 7 228 4.8 6.4 0.00 0.00 0.00 71 1023.3
20260502045004 7 228 3.2 6.4 0.00 0.00 0.00 72 1023.5
20260502044505 7 228 3.2 6.4 0.00 0.00 0.00 72 1023.3
20260502044004 6 228 3.2 4.8 0.00 0.00 0.00 73 1023.3
20260502043504 6 228 3.2 4.8 0.00 0.00 0.00 75 1023.2
20260502043005 5 228 3.2 4.8 0.00 0.00 0.00 79 1023.3
20260502042505 4 228 3.2 4.8 0.00 0.00 0.00 81 1023.5
20260502042005 4 228 3.2 3.2 0.00 0.00 0.00 80 1023.3
20260502041526 4 228 3.2 4.8 0.00 0.00 0.00 78 1023.3
20260502041005 4 228 3.2 4.8 0.00 0.00 0.00 78 1023.4
20260502040504 3 228 3.2 4.8 0.00 0.00 0.00 78 1023.3
20260502040005 3 228 3.2 4.8 0.00 0.00 0.00 79 1023.4
20260502035504 3 228 3.2 4.8 0.00 0.00 0.00 80 1023.4
20260502035005 3 228 3.2 4.8 0.00 0.00 0.00 80 1023.3
20260502034504 3 228 4.8 4.8 0.00 0.00 0.00 80 1023.3
20260502034004 3 228 3.2 4.8 0.00 0.00 0.00 80 1023.4
20260502033505 2 228 1.6 3.2 0.00 0.00 0.00 80 1023.5
20260502033005 2 228 1.6 3.2 0.00 0.00 0.00 80 1023.5
20260502032525 2 228 1.6 4.8 0.00 0.00 0.00 80 1023.4
20260502032025 2 228 3.2 4.8 0.00 0.00 0.00 79 1023.4
20260502031504 2 228 3.2 6.4 0.00 0.00 0.00 80 1023.5
20260502031004 2 228 3.2 6.4 0.00 0.00 0.00 79 1023.5
20260502030504 3 228 3.2 4.8 0.00 0.00 0.00 77 1023.4
20260502030005 3 228 1.6 4.8 0.00 0.00 0.00 76 1023.5
20260502025505 3 228 1.6 4.8 0.00 0.00 0.00 75 1023.5
20260502025025 3 228 1.6 4.8 0.00 0.00 0.00 76 1023.5
20260502024504 3 228 1.6 3.2 0.00 0.00 0.00 76 1023.5
20260502024004 3 228 1.6 3.2 0.00 0.00 0.00 76 1023.7
20260502023504 3 228 1.6 3.2 0.00 0.00 0.00 76 1023.6
20260502023005 3 228 1.6 3.2 0.00 0.00 0.00 76 1023.6
20260502022505 3 228 0.0 1.6 0.00 0.00 0.00 77 1023.7
20260502022005 3 228 1.6 1.6 0.00 0.00 0.00 75 1023.6